This is the latest recevied weather packets stored in our database for station/object DH5DY-6. If no packets are shown the sender has not sent any weather packets the latest 10 day(s).
| Time | Temp. | Humidity | Pressure | Rain* | Wind** | Luminosity | Snow |
|---|---|---|---|---|---|---|---|
| 1777546684 | 13.89° C | 28% | 1027.3 hPa | 0 mm | - | 765 W/m² | - |
| 1777546083 | 13.33° C | 28% | 1027.4 hPa | 0 mm | - | 759 W/m² | - |
| 1777545483 | 13.33° C | 29% | 1027.4 hPa | 0 mm | - | 756 W/m² | - |
| 1777544883 | 13.33° C | 30% | 1027.4 hPa | 0 mm | - | 724 W/m² | - |
| 1777544283 | 12.78° C | 29% | 1027.4 hPa | 0 mm | - | 742 W/m² | - |
| 1777543684 | 12.78° C | 30% | 1027.5 hPa | 0 mm | - | 728 W/m² | - |
| 1777543083 | 12.78° C | 30% | 1027.5 hPa | 0 mm | - | 717 W/m² | - |
| 1777542484 | 12.78° C | 29% | 1027.6 hPa | 0 mm | - | 698 W/m² | - |
| 1777541883 | 12.22° C | 29% | 1027.5 hPa | 0 mm | - | 696 W/m² | - |
| 1777541284 | 11.67° C | 30% | 1027.6 hPa | 0 mm | - | 666 W/m² | - |
| 1777540683 | 11.67° C | 30% | 1027.7 hPa | 0 mm | - | 661 W/m² | - |
| 1777539483 | 11.11° C | 32% | 1027.8 hPa | 0 mm | - | 629 W/m² | - |
| 1777538882 | 11.11° C | 30% | 1027.8 hPa | 0 mm | - | 589 W/m² | - |
| 1777538283 | 11.11° C | 30% | 1027.8 hPa | 0 mm | - | 598 W/m² | - |
| 1777537684 | 10.56° C | 31% | 1027.7 hPa | 0 mm | - | 570 W/m² | - |
| 1777537083 | 10.56° C | 31% | 1027.8 hPa | 0 mm | - | 536 W/m² | - |
| 1777536484 | 10° C | 34% | 1027.9 hPa | 0 mm | - | 504 W/m² | - |
| 1777535882 | 10° C | 34% | 1027.9 hPa | 0 mm | - | 497 W/m² | - |
| 1777535283 | 9.44° C | 34% | 1028 hPa | 0 mm | - | 464 W/m² | - |
| 1777534684 | 9.44° C | 35% | 1028.1 hPa | 0 mm | - | 457 W/m² | - |
| 1777534083 | 9.44° C | 35% | 1028.1 hPa | 0 mm | - | 431 W/m² | - |
| 1777533483 | 8.89° C | 36% | 1028.2 hPa | 0 mm | - | 322 W/m² | - |
| 1777532882 | 8.89° C | 36% | 1028.3 hPa | 0 mm | - | 267 W/m² | - |
| 1777532282 | 8.33° C | 37% | 1028.1 hPa | 0 mm | - | 306 W/m² | - |
| 1777531683 | 8.33° C | 38% | 1028.2 hPa | 0 mm | - | 320 W/m² | - |
* Rain latest hour (hover to see other rain measurements)
** Current wind speed in m/s (hover to see current wind gust speed)